Weather History for Belize, Belize

Change the Weather History Date:

Monday, February 27, 2012

  Actual Average Record
Temperature  
Mean Temperature 82 °F -  
Max Temperature 85 °F 85 °F 89 °F (1998)
Min Temperature 78 °F - 64 °F (2004)
Cooling Degree Days 16    
Growing Degree Days 32 (Base 50)    
Moisture  
Dew Point 73 °F    
Average Humidity 72    
Maximum Humidity 83    
Minimum Humidity 56    
Precipitation  
Precipitation 0.01 in 0.08 in - ()
Sea Level Pressure  
Sea Level Pressure 30.06 in    
Wind  
Wind Speed 9 mph ()    
Max Wind Speed 13 mph    
Max Gust Speed -    
Visibility 7.8 miles    
Events Rain    
Averages and records for this station are not official NWS values.
T = Trace of Precipitation, MM = Missing Value Source: Averaged Metar Reports

Daily Weather History Graph

Daily Weather History Graph

Search for Another Location

Airport:

Trip Planner

Search our weather history database for the weather conditions in past years. The results will help you decide how hot, cold, wet, or windy it might be!

Date:

Astronomy

Feb. 27, 2012 Rise Set
Actual Time 6:13 AM CST 5:58 PM CST
Civil Twilight 5:51 AM CST 6:20 PM CST
Nautical Twilight 5:26 AM CST 6:46 PM CST
Astronomical Twilight 5:00 AM CST 7:11 PM CST
Moon 9:39 AM CST (2/27) 10:51 PM CST (2/27)
Length of Visible Light 12h 29m
Length of Day
11h 45m
Waxing Crescent, 29% of the Moon is Illuminated
Feb 27
Waxing Crescent
Feb 29
First Quarter
Mar 8
Full
Mar 14
Last Quarter
Mar 22
New

Hourly Weather History & Observations

Time (CST) Temp. Heat Index Dew Point Humidity Pressure Visibility Wind Dir Wind Speed Gust Speed Precip Events Conditions
12:00 AM 80 °F - 73 °F 75% 30.07 in 9 mi East 9.2 mph - - Rain Light Rain Showers
12:00 AM 80.6 °F 85.4 °F 73.4 °F 79% 30.06 in 6.2 mi East 9.2 mph - N/A Rain Light Rain Showers
3:00 AM 80 °F - 73 °F 75% 30.02 in 12 mi East 11.5 mph - -   Partly Cloudy
3:00 AM 80.6 °F 85.4 °F 73.4 °F 79% 30.01 in 6.2 mi East 11.5 mph - N/A   Mostly Cloudy
6:00 AM 79 °F - 72 °F 75% 30.06 in 12 mi East 6.9 mph - -   Partly Cloudy
6:00 AM 78.8 °F - 73.4 °F 83% 30.04 in 6.2 mi East 6.9 mph - N/A   Mostly Cloudy
7:00 AM 78.8 °F - 71.6 °F 78% 30.06 in 6.2 mi East 9.2 mph - N/A   Mostly Cloudy
8:00 AM 80.6 °F 84.6 °F 71.6 °F 74% 30.09 in 6.2 mi East 11.5 mph - N/A   Mostly Cloudy
9:00 AM 82 °F - 74 °F 69% 30.12 in 12 mi East 10.4 mph - -   Mostly Cloudy
9:00 AM 82.4 °F 88.2 °F 73.4 °F 74% 30.11 in 6.2 mi East 10.4 mph - N/A   Scattered Clouds
10:00 AM 82.4 °F 88.2 °F 73.4 °F 74% 30.12 in 6.2 mi East 12.7 mph - N/A   Mostly Cloudy
11:00 AM 82.4 °F 88.2 °F 73.4 °F 74% 30.11 in 6.2 mi East 12.7 mph - N/A   Mostly Cloudy
12:00 PM 86.0 °F 95.1 °F 75.2 °F 70% 30.08 in 6.2 mi East 12.7 mph - N/A   Scattered Clouds
1:00 PM 86.0 °F 93.4 °F 73.4 °F 66% 30.06 in 6.2 mi East 12.7 mph - N/A   Partly Cloudy
2:00 PM 84.2 °F 89.6 °F 71.6 °F 66% 30.05 in 6.2 mi East 12.7 mph - N/A   Partly Cloudy
3:00 PM 85 °F - 72 °F 56% 30.04 in 12 mi East 12.7 mph - -   Scattered Clouds
3:00 PM 84.2 °F 89.6 °F 71.6 °F 66% 30.03 in 6.2 mi East 12.7 mph - N/A   Partly Cloudy
4:00 PM 84.2 °F 89.6 °F 71.6 °F 66% 30.03 in 6.2 mi East 12.7 mph - N/A   Partly Cloudy
5:00 PM 82.4 °F 87.2 °F 71.6 °F 70% 30.04 in 6.2 mi East 10.4 mph - N/A   Partly Cloudy
6:00 PM 82 °F - 73 °F 68% 30.05 in 12 mi East 6.9 mph - -   Partly Cloudy
6:00 PM 82.4 °F 88.2 °F 73.4 °F 74% 30.05 in 6.2 mi East 6.9 mph - N/A   Scattered Clouds
9:00 PM 80 °F - 74 °F 76% 30.09 in 12 mi East 9.2 mph - - Rain Light Rain Showers
9:00 PM 80.6 °F 85.4 °F 73.4 °F 79% 30.08 in 6.2 mi East 9.2 mph - N/A   Scattered Clouds